Temp
55 54 54 54 54 54 55 55 55 55 55 55 55 55 52 51 49 48 49 52 52 58 59 55 60 62 60 59 60 60 61 59 57 59 59 59 59 56 54 52 52 52 52 52 51 50 51 51 52 54 55 54 54 54 53 53 53 53 54 54 55 55 54 53 52 53 54 56 56 56 56 57 62 62
55 55 55 55 54 55 55 55 55 55 55 55 55 54 54 53 50 49 47 49 54 53 57 58 57 60 59 59 59 59 59 58 58 59 59 58 59 55 53 52 51 51 51 50 49 48 49 51 52 54 53 53 53 53 53 53 53 53 53 54 54 53 52 52 52 53 54 55 55 55 55 57 59 61
55 54 53 54 54 55 55 55 55 55 55 55 56 55 55 53 51 50 49 47 54 55 52 55 59 57 59 59 59 59 60 59 58 58 58 60 57 54 56 53 53 52 51 50 51 52 51 50 50 51 52 52 53 53 53 52 52 53 53 52 51 52 52 52 52 53 54 55 55 55 55 55 57 61
55 55 54 54 54 55 56 55 55 55 55 55 55 55 54 54 52 51 50 48 48 55 54 54 56 59 57 59 58 59 59 60 56 59 58 59 56 59 59 55 53 53 51 51 51 52 51 49 50 51 52 52 52 53 51 52 52 52 51 50 50 50 50 50 51 53 54 54 54 54 53 54 55 59
55 55 55 55 55 56 55 55 56 56 56 56 55 55 55 54 54 52 50 48 49 53 56 55 56 57 57 57 59 58 58 58 59 58 59 59 58 59 58 60 55 53 52 50 49 49 49 49 51 52 51 51 51 50 49 50 50 50 49 48 48 48 49 50 50 51 52 53 53 52 52 52 54 55
55 55 55 55 55 55 55 55 56 56 56 56 56 55 54 54 53 53 50 49 49 48 54 54 57 57 58 55 59 56 55 56 57 58 58 59 60 58 59 58 58 53 51 50 49 49 49 48 49 49 48 47 47 48 48 47 47 48 48 45 44 47 49 50 50 50 51 51 52 52 52 52 53 53
56 55 55 55 55 55 55 54 55 55 55 56 55 54 55 53 53 53 52 50 49 48 50 54 54 55 55 54 56 58 57 57 57 57 57 58 58 59 58 56 57 53 50 50 49 49 48 49 48 47 48 47 47 47 47 47 47 46 47 46 47 47 47 48 48 48 49 51 51 51 51 51 51 54
56 55 54 54 55 55 54 54 54 55 55 55 55 54 55 54 53 53 52 52 50 50 49 52 53 54 53 55 58 58 58 57 56 57 57 58 60 59 58 58 57 55 51 50 49 49 49 48 48 47 47 47 47 47 47 47 47 46 46 47 47 46 46 46 46 46 47 49 49 50 50 50 51 54
56 56 55 55 55 55 54 54 54 54 53 55 55 54 55 54 54 53 53 53 52 51 50 51 54 55 55 55 56 57 55 54 56 56 55 56 56 56 59 58 57 53 51 51 50 50 49 48 48 48 48 48 47 47 47 47 47 47 47 47 46 46 46 46 46 46 47 46 46 49 50 50 51 52
56 55 56 55 56 55 54 53 53 54 53 54 54 53 53 54 54 52 53 53 52 52 51 51 51 54 52 53 54 56 55 53 52 53 54 55 56 55 53 54 55 55 56 54 54 52 51 51 49 49 48 47 46 46 47 47 47 47 47 47 46 46 46 46 46 46 46 46 46 47 48 49 50 51
56 56 56 56 55 55 55 54 53 53 53 53 53 53 52 53 52 52 53 53 52 52 51 52 53 52 54 54 52 56 56 54 53 50 52 52 54 54 53 52 54 56 54 53 50 50 51 50 52 50 47 47 48 48 47 47 48 48 47 47 46 46 46 46 46 46 46 46 46 45 45 47 48 50
56 56 56 56 56 56 55 54 54 53 52 53 53 53 53 52 51 51 52 52 52 51 51 51 51 52 52 54 54 55 54 52 52 52 50 47 48 50 53 53 51 53 53 51 53 52 52 52 52 50 50 51 50 49 49 50 50 50 49 47 46 46 45 46 46 46 46 46 46 45 45 45 45 48
56 57 56 56 56 53 50 47 47 46 47 51 52 52 52 51 51 51 51 52 52 51 51 51 52 51 51 52 51 50 49 48 48 50 50 48 49 50 50 52 54 54 51 51 51 51 51 51 52 53 54 54 53 53 51 51 51 50 47 46 46 46 46 46 46 46 46 46 46 46 46 45 45 45
56 56 57 55 50 49 49 47 44 43 43 43 47 49 50 50 50 50 50 50 50 50 49 50 50 49 49 50 50 49 50 51 51 50 49 47 49 49 48 50 53 54 51 47 46 49 52 51 51 52 51 54 54 54 55 56 52 49 46 46 46 45 45 45 45 46 46 46 46 46 45 45 45 44
56 57 57 57 53 53 52 52 45 44 42 42 42 42 43 45 47 48 48 49 49 49 49 50 50 49 48 49 50 50 50 50 49 49 49 49 48 45 43 41 48 53 49 47 46 47 51 50 48 50 52 53 53 54 55 49 48 47 46 45 45 45 45 45 45 45 45 45 45 45 45 45 45 44
57 56 56 56 55 54 53 54 55 51 45 43 42 42 42 42 42 42 45 46 48 48 48 48 49 49 49 49 50 50 49 48 48 49 49 48 46 44 43 43 42 48 50 46 44 44 49 50 49 49 50 52 53 54 50 47 47 46 46 45 45 45 45 45 45 45 45 45 45 45 45 45 44 44
57 57 56 56 55 54 49 54 56 55 55 48 45 45 46 46 44 41 40 41 46 49 48 48 48 50 49 48 50 50 48 49 47 48 48 48 46 45 44 44 44 47 51 47 44 43 47 49 47 47 50 52 53 53 50 48 47 46 46 45 45 44 44 44 44 44 44 44 44 44 44 44 44 44
56 56 56 56 55 55 55 55 54 54 54 54 54 54 55 54 52 46 44 44 43 46 49 49 48 50 51 49 49 51 51 48 47 47 46 48 47 47 45 47 48 50 51 46 43 41 45 47 46 47 50 52 51 52 50 47 47 46 46 45 44 44 44 44 44 44 44 43 44 44 44 44 43 43
56 56 55 55 55 55 55 52 47 53 53 53 53 54 53 54 54 54 53 52 51 50 50 50 50 50 51 51 50 51 51 50 50 50 49 50 50 49 49 48 48 49 51 48 43 37 42 47 46 47 48 49 49 52 49 48 47 46 46 45 44 44 44 43 43 43 43 44 44 44 43 43 43 43
57 56 56 56 54 55 55 46 38 43 50 54 53 52 53 54 54 55 51 45 44 48 49 50 50 50 49 45 47 48 49 51 51 51 53 54 51 48 44 41 44 44 49 48 42 38 40 45 43 44 47 48 47 50 52 49 48 47 46 45 45 44 44 43 43 43 43 43 44 44 44 43 42 42
56 56 56 56 55 55 55 43 37 38 42 54 53 52 52 53 54 54 54 48 44 43 42 41 41 40 41 41 42 42 42 47 48 51 50 49 49 45 40 40 41 42 46 47 44 39 38 42 42 43 46 46 45 47 50 52 49 47 46 45 45 45 44 43 43 43 43 43 43 43 43 43 43 43
56 54 48 51 55 54 54 39 38 37 46 53 52 52 51 52 52 53 53 52 52 46 45 44 43 43 42 42 44 45 45 44 47 51 46 48 49 44 42 39 41 42 45 45 44 37 37 41 43 42 44 45 46 47 50 49 50 49 49 48 46 45 44 44 44 43 43 43 43 44 43 43 43 48
56 54 51 45 47 51 46 36 38 36 45 53 52 51 51 51 51 51 52 51 50 51 52 53 54 52 51 54 55 54 46 46 49 52 50 51 48 45 44 43 42 39 41 45 44 35 37 39 41 41 38 37 42 46 47 48 49 50 52 53 54 48 46 45 44 43 43 43 43 43 43 43 43 51
55 55 55 48 38 38 37 37 36 38 38 49 52 52 52 50 49 52 50 51 50 50 50 51 52 52 54 55 56 56 55 55 54 53 52 52 50 48 46 46 43 39 40 44 43 37 38 40 38 42 39 34 34 40 44 44 44 46 48 49 50 49 49 47 46 43 42 43 43 43 43 43 44 52
56 56 57 58 42 37 38 37 37 37 38 39 50 52 52 51 47 43 49 51 47 51 51 52 53 54 55 55 56 55 55 55 54 54 53 53 52 50 48 46 45 43 44 45 42 40 36 38 37 38 39 38 37 37 40 42 43 44 45 46 46 50 53 54 51 54 47 42 42 42 42 43 42 48
56 57 57 58 47 37 38 37 37 36 38 36 49 52 42 38 36 44 49 52 53 53 53 53 53 53 53 54 54 54 54 54 54 54 54 54 53 54 53 50 47 43 43 46 42 41 37 36 36 34 36 36 36 38 36 38 41 42 44 45 47 48 51 52 52 52 53 56 54 47 47 42 43 42
56 57 56 54 42 37 37 37 37 38 36 40 51 40 37 38 36 41 53 53 52 53 53 52 51 51 52 51 52 52 52 53 53 53 54 54 55 54 54 54 54 52 51 50 48 43 39 36 38 35 34 35 34 36 36 34 36 40 41 43 46 48 50 49 48 49 51 52 55 46 44 42 42 42
56 56 56 53 39 37 37 37 37 38 38 47 40 37 37 36 39 51 53 53 53 51 52 51 51 51 51 51 51 51 52 52 52 53 54 54 55 55 54 55 55 56 54 52 49 46 42 38 37 38 37 34 33 32 31 36 37 37 37 41 44 45 46 45 45 46 48 52 53 54 54 53 51 49
55 47 39 37 37 38 37 36 36 39 40 37 37 37 36 40 54 54 54 53 52 52 50 50 50 51 51 51 51 52 52 52 54 54 53 54 55 55 55 55 56 55 54 53 51 48 44 40 38 38 38 36 33 34 33 33 34 36 37 37 38 43 43 44 44 43 46 49 51 50 53 56 56 53
37 36 37 35 35 37 40 48 53 56 55 42 37 36 38 53 55 54 54 53 51 51 51 50 49 51 52 52 52 52 53 53 53 52 51 51 53 53 53 53 54 55 56 55 54 51 47 43 41 40 38 38 36 34 34 33 34 36 36 35 37 42 42 41 41 43 44 47 48 50 52 54 56 55
50 47 45 49 42 42 38 37 39 41 44 49 53 56 56 56 55 54 53 52 51 50 50 50 51 52 53 54 53 52 52 52 53 53 51 51 51 52 52 52 51 52 53 55 55 52 49 47 44 42 38 37 37 36 35 36 34 35 35 36 36 33 36 40 40 40 43 47 48 48 48 49 50 51
53 52 45 42 49 52 53 54 56 57 58 56 54 57 57 57 55 50 45 44 51 53 53 53 53 52 52 52 52 52 52 52 52 53 52 50 50 51 52 50 49 50 51 52 52 52 46 49 45 43 41 38 34 35 36 36 34 34 35 35 36 37 38 37 38 40 41 44 43 43 43 44 46 50
51 52 52 54 55 56 48 56 56 57 57 57 57 56 56 57 56 56 56 55 53 52 51 51 51 50 52 51 52 51 51 50 51 53 51 52 51 51 51 49 49 48 47 48 49 49 49 48 47 44 43 43 39 35 33 33 35 36 35 35 36 36 36 37 38 39 40 41 41 41 41 41 42 42
52 53 53 52 51 55 55 54 51 54 55 55 55 57 49 54 56 55 55 55 54 51 50 51 49 51 48 50 51 50 49 49 50 51 47 51 52 50 47 47 48 50 50 47 47 44 45 43 45 44 44 45 42 38 38 34 34 36 36 36 35 35 36 36 37 39 39 37 39 39 39 38 39 41
48 51 51 53 53 53 55 52 53 53 53 52 49 55 55 56 49 46 55 55 51 49 50 47 49 47 50 48 50 49 48 48 49 51 51 51 51 50 49 47 44 47 49 48 45 48 47 44 42 40 41 44 45 46 44 40 36 35 36 36 35 34 34 36 37 38 39 37 38 37 38 37 36 38
51 49 50 52 50 54 52 49 52 53 54 53 54 54 53 52 54 53 53 52 53 52 52 49 49 49 49 49 48 48 48 45 49 49 48 49 45 48 50 47 46 48 50 48 50 50 48 46 43 39 36 39 39 39 40 42 40 36 33 33 34 34 34 36 38 39 37 36 36 36 35 34 35 36
51 52 53 53 55 55 52 55 55 55 56 55 55 55 50 52 55 57 56 52 52 50 51 46 48 50 49 48 48 47 47 47 47 47 46 49 49 49 47 46 47 47 49 50 52 50 49 47 45 40 37 37 37 35 37 40 41 41 36 34 34 34 33 35 36 35 36 36 36 35 34 35 35 36
48 53 53 53 54 56 55 55 53 51 53 56 56 54 56 56 57 57 56 55 53 52 52 52 50 49 50 49 48 48 48 49 48 48 47 47 46 45 46 45 46 48 49 49 51 51 50 48 45 40 38 37 36 35 34 39 42 42 41 37 34 34 34 33 33 34 35 36 35 34 35 35 35 37
53 52 52 53 54 55 54 54 53 54 55 56 55 55 56 57 58 57 53 53 55 54 54 52 51 49 47 50 49 48 48 48 47 47 46 45 47 45 45 45 45 47 48 48 50 51 50 48 46 42 39 39 37 38 39 38 40 43 42 40 37 35 34 33 32 33 33 33 34 36 38 39 39 38
52 52 54 54 54 55 54 54 53 54 54 55 56 58 56 51 55 55 55 53 52 49 49 51 49 48 50 51 47 49 49 49 47 48 47 45 45 45 46 44 46 46 46 46 45 49 49 48 47 46 43 44 44 45 47 46 48 47 45 41 40 37 34 34 32 32 32 33 34 36 37 39 37 38
52 52 53 53 54 54 53 54 54 53 53 54 56 52 55 56 56 52 50 52 49 51 53 53 47 47 48 50 48 47 47 48 49 49 47 45 45 45 43 41 47 46 44 45 44 46 47 50 47 37 43 48 48 52 47 43 42 43 43 45 41 39 38 37 34 33 32 33 34 35 36 36 35 36
54 54 55 55 54 54 53 52 53 52 52 53 54 55 56 55 54 47 49 45 47 45 49 51 49 51 50 51 51 49 48 48 48 48 46 46 47 46 45 46 47 46 44 45 45 47 51 53 52 52 52 46 47 44 41 41 40 42 43 46 46 42 39 38 38 37 36 34 32 32 33 36 37 33
53 54 54 54 53 53 53 52 53 52 52 53 54 55 53 53 51 53 55 53 52 53 54 54 54 54 54 54 53 51 50 49 48 48 45 46 46 46 47 47 46 45 44 45 48 49 49 52 53 49 49 48 46 45 42 41 43 43 43 45 44 47 46 40 38 37 37 37 36 34 34 33 32 28
54 53 54 55 54 54 53 53 53 52 51 52 52 53 52 53 53 53 52 56 55 55 55 55 54 54 52 53 52 51 51 51 50 48 47 46 46 46 46 46 45 44 47 48 48 49 50 50 49 50 49 47 47 46 42 42 44 43 44 43 44 44 45 47 47 42 39 37 37 37 36 36 34 34
54 54 55 55 54 54 54 54 52 51 51 51 51 52 51 52 52 54 52 51 53 52 51 52 52 53 53 52 53 51 52 48 48 49 49 48 49 48 47 47 47 46 47 48 47 47 48 49 51 51 50 49 48 47 45 44 44 43 44 42 42 43 45 45 46 45 42 40 37 37 37 37 37 36
MSLP
1026.96 1027.08 1027.16 1027.16 1027.36 1027.48 1027.48 1027.44 1027.36 1027.32 1027.16 1027.04 1027.04 1026.92 1027.00 1026.88 1026.48 1026.12 1025.28 1024.56 1024.88 1024.04 1024.28 1024.20 1023.56 1023.52 1023.44 1023.24 1022.84 1022.44 1022.00 1021.60 1021.44 1020.92 1020.40 1019.92 1019.44 1019.08 1018.88 1018.64 1018.40 1018.12 1017.88 1017.64 1017.44 1017.16 1016.84 1016.48 1016.16 1015.76 1015.44 1015.20 1014.96 1014.76 1014.60 1014.40 1014.16 1013.92 1013.84 1013.68 1013.44 1013.20 1013.04 1012.92 1012.80 1012.56 1012.24 1012.00 1011.84 1011.64 1011.44 1011.28 1010.92 1011.16
1027.24 1027.36 1027.40 1027.48 1027.60 1027.72 1027.60 1027.64 1027.56 1027.44 1027.36 1027.28 1027.16 1027.12 1027.20 1027.16 1027.12 1027.00 1026.64 1025.48 1024.96 1024.88 1024.56 1024.36 1024.00 1023.60 1023.44 1023.24 1022.88 1022.44 1021.92 1021.52 1021.24 1020.72 1020.20 1019.68 1019.16 1018.84 1018.56 1018.20 1017.92 1017.72 1017.52 1017.36 1017.12 1016.88 1016.56 1016.20 1015.84 1015.48 1015.20 1014.92 1014.64 1014.40 1014.20 1014.04 1013.88 1013.64 1013.48 1013.36 1013.24 1013.12 1012.96 1012.76 1012.56 1012.44 1012.20 1011.84 1011.68 1011.52 1011.40 1011.16 1010.96 1010.76
1027.48 1027.64 1027.76 1027.76 1027.80 1027.76 1027.72 1027.64 1027.56 1027.56 1027.48 1027.36 1027.24 1027.24 1027.16 1027.28 1027.36 1027.24 1026.92 1026.32 1024.68 1025.08 1024.88 1024.52 1024.32 1023.96 1023.52 1023.16 1022.80 1022.28 1021.76 1021.32 1021.08 1020.52 1019.88 1019.28 1018.88 1018.52 1018.00 1017.68 1017.48 1017.36 1017.20 1017.04 1016.80 1016.48 1016.16 1015.88 1015.48 1015.16 1014.84 1014.52 1014.24 1014.00 1013.84 1013.72 1013.60 1013.40 1013.16 1013.12 1013.12 1012.96 1012.80 1012.60 1012.36 1012.12 1012.00 1011.76 1011.48 1011.40 1011.28 1011.04 1010.84 1010.60
1027.72 1027.80 1027.92 1027.92 1027.88 1027.80 1027.68 1027.64 1027.64 1027.56 1027.52 1027.48 1027.36 1027.28 1027.20 1027.12 1027.28 1027.24 1027.00 1026.72 1025.72 1025.00 1025.04 1024.64 1024.24 1023.88 1023.52 1023.08 1022.60 1022.04 1021.52 1021.12 1020.88 1020.24 1019.60 1019.00 1018.64 1018.08 1017.52 1017.28 1017.24 1017.08 1016.88 1016.64 1016.36 1016.04 1015.76 1015.56 1015.24 1014.84 1014.44 1014.16 1013.88 1013.64 1013.52 1013.44 1013.32 1013.16 1012.96 1012.84 1012.80 1012.72 1012.60 1012.40 1012.20 1011.88 1011.60 1011.52 1011.40 1011.28 1011.20 1010.96 1010.76 1010.48
1027.88 1027.88 1027.92 1028.00 1028.04 1027.96 1027.84 1027.72 1027.64 1027.60 1027.56 1027.44 1027.32 1027.28 1027.16 1027.00 1027.00 1027.12 1027.00 1026.60 1025.88 1025.04 1024.84 1024.56 1024.12 1023.72 1023.44 1022.88 1022.44 1021.88 1021.36 1020.88 1020.44 1020.00 1019.40 1018.88 1018.40 1017.92 1017.60 1017.04 1016.68 1016.60 1016.32 1016.12 1015.96 1015.80 1015.48 1015.20 1014.88 1014.48 1014.12 1013.84 1013.60 1013.36 1013.16 1013.04 1012.96 1012.84 1012.68 1012.52 1012.44 1012.40 1012.32 1012.12 1011.92 1011.72 1011.40 1011.28 1011.28 1011.20 1011.08 1010.88 1010.60 1010.36
1028.04 1028.00 1027.96 1028.04 1028.12 1028.08 1027.96 1027.88 1027.72 1027.64 1027.52 1027.40 1027.20 1027.16 1027.16 1026.96 1026.88 1026.92 1026.92 1026.48 1026.08 1025.40 1024.56 1024.36 1024.04 1023.60 1023.28 1022.84 1022.32 1021.84 1021.20 1020.68 1020.36 1019.80 1019.12 1018.60 1018.24 1018.08 1017.52 1017.04 1016.48 1016.16 1016.04 1015.88 1015.72 1015.48 1015.20 1014.88 1014.52 1014.16 1013.80 1013.48 1013.24 1013.00 1012.80 1012.64 1012.52 1012.48 1012.36 1012.20 1012.04 1012.00 1011.92 1011.76 1011.60 1011.44 1011.24 1011.00 1010.92 1010.88 1010.80 1010.68 1010.44 1010.16
1028.00 1028.00 1028.08 1028.12 1028.16 1028.04 1027.96 1027.92 1027.80 1027.76 1027.60 1027.44 1027.32 1027.24 1027.04 1027.00 1026.92 1026.76 1026.68 1026.52 1026.00 1025.64 1024.92 1024.36 1023.88 1023.48 1023.20 1022.88 1022.04 1021.64 1021.28 1020.84 1020.40 1019.76 1019.08 1018.64 1018.48 1018.16 1017.76 1017.08 1016.16 1015.76 1015.84 1015.68 1015.40 1015.12 1014.84 1014.48 1014.12 1013.80 1013.44 1013.08 1012.84 1012.60 1012.44 1012.24 1012.08 1012.00 1011.92 1011.80 1011.60 1011.48 1011.48 1011.44 1011.32 1011.16 1011.00 1010.80 1010.60 1010.52 1010.48 1010.44 1010.24 1009.92
1027.92 1028.00 1028.08 1028.20 1028.12 1028.04 1027.96 1027.92 1027.80 1027.72 1027.68 1027.48 1027.28 1027.12 1026.92 1026.80 1026.76 1026.64 1026.48 1026.24 1026.12 1025.64 1025.12 1024.20 1023.96 1023.48 1023.12 1022.48 1022.04 1021.56 1021.16 1020.76 1020.28 1019.88 1019.28 1018.92 1018.12 1017.76 1017.44 1016.76 1016.08 1015.68 1015.52 1015.36 1015.04 1014.72 1014.40 1014.04 1013.64 1013.32 1013.00 1012.68 1012.36 1012.16 1011.96 1011.80 1011.64 1011.52 1011.44 1011.36 1011.16 1011.04 1010.96 1010.96 1010.92 1010.80 1010.68 1010.56 1010.40 1010.20 1010.16 1010.12 1010.00 1009.68
1027.96 1028.04 1028.12 1028.16 1028.12 1028.04 1027.96 1027.92 1027.84 1027.80 1027.80 1027.52 1027.28 1027.12 1026.88 1026.72 1026.64 1026.44 1026.24 1026.08 1025.88 1025.56 1025.08 1024.40 1023.88 1023.48 1023.12 1022.64 1022.00 1021.52 1021.00 1020.44 1020.24 1019.84 1019.40 1018.80 1018.04 1017.52 1016.92 1016.44 1016.00 1015.48 1015.24 1015.00 1014.64 1014.32 1013.96 1013.48 1013.12 1012.84 1012.48 1012.20 1011.88 1011.64 1011.44 1011.28 1011.16 1011.04 1010.92 1010.84 1010.72 1010.56 1010.48 1010.44 1010.44 1010.36 1010.28 1010.24 1010.12 1009.92 1009.76 1009.68 1009.64 1009.48
1028.04 1028.08 1028.12 1028.12 1028.08 1028.00 1028.04 1028.04 1028.00 1027.92 1027.80 1027.60 1027.28 1027.16 1027.00 1026.76 1026.56 1026.40 1026.12 1025.88 1025.72 1025.44 1024.96 1024.40 1023.76 1023.32 1022.96 1022.40 1022.08 1021.52 1021.20 1020.64 1019.92 1019.52 1019.32 1018.64 1017.76 1017.36 1017.04 1016.40 1015.64 1015.32 1014.88 1014.52 1014.28 1013.96 1013.40 1012.84 1012.68 1012.32 1012.00 1011.72 1011.44 1011.12 1010.92 1010.76 1010.64 1010.52 1010.44 1010.40 1010.28 1010.16 1010.00 1009.92 1009.92 1009.92 1009.84 1009.84 1009.80 1009.68 1009.48 1009.36 1009.32 1009.24
1028.08 1028.12 1028.12 1028.12 1028.12 1028.08 1028.04 1028.04 1028.04 1028.00 1027.80 1027.64 1027.32 1027.16 1027.08 1026.80 1026.68 1026.36 1026.04 1025.80 1025.52 1025.24 1024.88 1024.28 1023.88 1023.36 1022.92 1022.60 1021.92 1021.32 1021.32 1020.96 1020.44 1019.76 1018.68 1018.24 1017.92 1017.44 1017.12 1016.24 1015.60 1015.00 1014.68 1014.56 1014.32 1013.84 1013.24 1012.68 1012.24 1011.88 1011.60 1011.32 1010.96 1010.64 1010.44 1010.24 1010.12 1010.00 1009.96 1009.92 1009.88 1009.80 1009.64 1009.52 1009.44 1009.44 1009.40 1009.36 1009.40 1009.36 1009.28 1009.20 1009.12 1009.04
1028.12 1028.16 1028.12 1028.12 1028.12 1028.12 1028.16 1028.24 1028.16 1028.12 1027.96 1027.60 1027.28 1027.16 1027.08 1026.88 1026.68 1026.40 1026.04 1025.72 1025.40 1025.08 1024.76 1024.32 1023.76 1023.40 1022.96 1022.28 1022.12 1021.68 1021.16 1020.76 1020.24 1020.12 1019.84 1019.08 1018.20 1017.48 1016.76 1016.52 1015.76 1014.88 1014.76 1014.40 1013.88 1013.44 1012.96 1012.32 1011.92 1011.56 1011.16 1010.80 1010.52 1010.28 1010.00 1009.72 1009.60 1009.48 1009.44 1009.44 1009.48 1009.44 1009.32 1009.16 1009.04 1009.00 1008.96 1008.92 1008.96 1008.96 1008.92 1008.92 1008.92 1008.84
1028.04 1028.08 1028.16 1028.16 1028.24 1028.48 1028.64 1028.76 1028.76 1028.76 1028.60 1027.96 1027.52 1027.36 1027.24 1027.08 1026.80 1026.52 1026.16 1025.76 1025.44 1025.12 1024.80 1024.32 1023.92 1023.48 1022.96 1022.56 1022.16 1021.68 1021.32 1021.20 1020.76 1020.12 1019.88 1019.24 1018.60 1017.80 1016.88 1016.00 1015.72 1015.24 1014.60 1014.24 1014.16 1013.72 1013.24 1012.52 1011.80 1011.44 1010.92 1010.44 1010.20 1009.76 1009.52 1009.24 1009.04 1009.04 1009.16 1009.24 1009.20 1009.12 1009.00 1008.80 1008.68 1008.56 1008.52 1008.48 1008.48 1008.56 1008.56 1008.52 1008.56 1008.60
1027.96 1028.04 1028.08 1028.28 1028.60 1028.60 1028.60 1028.56 1028.60 1028.60 1028.56 1028.48 1028.28 1027.96 1027.68 1027.44 1027.12 1026.76 1026.44 1026.00 1025.68 1025.36 1024.92 1024.52 1024.12 1023.64 1023.28 1022.84 1022.52 1022.24 1021.92 1021.48 1020.96 1020.32 1019.48 1018.96 1018.32 1018.04 1017.52 1016.32 1015.40 1015.08 1014.92 1014.56 1014.12 1013.76 1013.32 1012.72 1011.84 1011.48 1011.04 1010.36 1009.96 1009.60 1009.24 1008.84 1008.88 1008.92 1009.00 1008.96 1008.84 1008.72 1008.56 1008.40 1008.28 1008.16 1008.12 1008.04 1008.04 1008.12 1008.16 1008.16 1008.16 1008.28
1027.84 1027.88 1027.92 1028.04 1028.28 1028.28 1028.24 1028.20 1028.32 1028.28 1028.24 1028.16 1028.04 1028.04 1028.08 1028.00 1027.68 1027.24 1026.88 1026.44 1026.08 1025.72 1025.24 1024.76 1024.28 1024.00 1023.64 1023.20 1022.80 1022.36 1022.00 1021.60 1021.28 1020.44 1019.84 1019.12 1018.52 1018.24 1017.68 1016.80 1015.60 1015.44 1015.32 1014.84 1014.20 1013.44 1013.24 1013.00 1012.16 1011.40 1010.92 1010.36 1010.00 1009.56 1009.00 1008.92 1008.84 1008.68 1008.56 1008.48 1008.40 1008.28 1008.16 1007.96 1007.80 1007.68 1007.64 1007.64 1007.60 1007.64 1007.76 1007.80 1007.80 1007.84
1027.68 1027.76 1027.80 1027.92 1028.16 1028.24 1028.32 1028.08 1027.84 1027.84 1027.92 1027.88 1027.76 1027.68 1027.56 1027.56 1027.60 1027.72 1027.52 1027.12 1026.44 1026.12 1025.64 1025.04 1024.56 1024.20 1023.92 1023.52 1022.84 1022.44 1022.12 1021.72 1021.16 1020.60 1019.84 1019.20 1018.96 1018.56 1018.08 1017.40 1016.60 1015.44 1015.24 1014.80 1014.32 1013.68 1013.12 1012.64 1012.08 1011.36 1010.80 1010.44 1009.84 1009.24 1008.92 1008.68 1008.40 1008.24 1008.12 1008.00 1007.92 1007.80 1007.68 1007.52 1007.32 1007.20 1007.16 1007.20 1007.16 1007.20 1007.32 1007.40 1007.40 1007.48
1027.64 1027.64 1027.68 1027.72 1027.96 1028.12 1028.32 1027.96 1027.76 1027.68 1027.52 1027.52 1027.52 1027.36 1027.12 1027.00 1027.08 1027.08 1027.20 1027.28 1027.08 1026.52 1025.92 1025.44 1024.88 1024.44 1024.24 1023.72 1023.16 1022.92 1022.64 1022.16 1021.44 1020.52 1019.84 1019.40 1019.00 1018.56 1018.24 1017.64 1016.88 1015.60 1015.04 1014.64 1014.24 1013.76 1012.84 1012.40 1011.80 1011.32 1010.64 1010.04 1009.40 1008.88 1008.48 1008.24 1008.08 1007.80 1007.60 1007.48 1007.36 1007.32 1007.24 1007.12 1006.92 1006.76 1006.68 1006.68 1006.76 1006.76 1006.88 1007.00 1007.08 1007.12
1027.60 1027.68 1027.64 1027.64 1027.76 1027.88 1027.92 1027.88 1027.84 1027.64 1027.52 1027.36 1027.20 1027.04 1026.88 1026.76 1026.64 1026.64 1026.64 1026.64 1026.60 1026.48 1026.08 1025.68 1025.24 1024.68 1024.44 1024.12 1023.56 1023.12 1022.76 1022.20 1021.48 1020.68 1020.12 1019.64 1018.92 1018.36 1018.16 1017.60 1016.80 1015.88 1015.16 1014.88 1014.68 1013.88 1012.96 1012.52 1011.80 1011.00 1010.28 1009.84 1009.32 1008.84 1008.28 1008.04 1007.72 1007.36 1007.16 1007.00 1006.92 1006.88 1006.84 1006.72 1006.52 1006.36 1006.28 1006.24 1006.32 1006.40 1006.44 1006.60 1006.72 1006.84
1027.64 1027.72 1027.80 1027.76 1027.80 1027.88 1027.80 1028.12 1028.40 1027.80 1027.56 1027.40 1027.24 1027.12 1027.00 1026.84 1026.68 1026.48 1026.44 1026.44 1026.48 1026.28 1026.04 1025.72 1025.36 1024.88 1024.48 1024.16 1023.72 1023.24 1022.84 1022.44 1021.84 1021.20 1020.52 1019.64 1018.96 1018.60 1018.20 1017.64 1017.04 1016.16 1015.44 1015.20 1015.08 1014.56 1013.24 1012.52 1011.80 1010.88 1010.24 1009.68 1009.24 1008.64 1008.04 1007.68 1007.36 1007.04 1006.76 1006.60 1006.52 1006.48 1006.44 1006.32 1006.16 1006.00 1005.88 1005.84 1005.88 1005.96 1006.04 1006.20 1006.40 1006.52
1027.60 1027.64 1027.68 1027.68 1027.80 1027.84 1027.76 1028.20 1028.36 1028.28 1027.88 1027.36 1027.28 1027.16 1027.00 1026.76 1026.60 1026.40 1026.52 1026.60 1026.60 1026.44 1026.16 1025.80 1025.44 1025.00 1024.64 1024.32 1023.84 1023.28 1022.84 1022.28 1021.68 1020.88 1020.08 1019.28 1018.88 1018.56 1018.16 1017.68 1016.84 1016.36 1015.52 1015.36 1015.32 1014.88 1013.72 1012.76 1012.28 1011.00 1010.28 1009.80 1009.12 1008.52 1007.88 1007.32 1007.04 1006.76 1006.52 1006.32 1006.16 1006.04 1006.00 1005.96 1005.80 1005.64 1005.52 1005.48 1005.52 1005.60 1005.68 1005.80 1006.00 1006.20
1027.60 1027.64 1027.64 1027.72 1027.68 1027.72 1027.76 1028.24 1028.28 1028.20 1027.96 1027.36 1027.36 1027.28 1027.16 1026.84 1026.52 1026.36 1026.28 1026.28 1026.12 1025.96 1025.76 1025.52 1025.24 1024.88 1024.40 1023.92 1023.40 1022.88 1022.48 1022.20 1021.64 1020.68 1019.88 1019.32 1018.80 1018.32 1018.20 1017.64 1017.04 1016.32 1015.68 1015.32 1015.56 1015.24 1013.96 1012.84 1012.28 1011.24 1010.28 1009.80 1009.20 1008.44 1007.72 1007.08 1006.72 1006.48 1006.04 1005.80 1005.60 1005.44 1005.40 1005.44 1005.40 1005.24 1005.12 1005.08 1005.16 1005.24 1005.32 1005.44 1005.68 1005.88
1027.52 1027.76 1028.08 1027.92 1027.72 1027.68 1027.76 1028.20 1028.24 1028.20 1027.92 1027.40 1027.44 1027.36 1027.24 1026.96 1026.68 1026.48 1026.40 1026.20 1025.88 1025.68 1025.40 1025.04 1024.72 1024.32 1023.92 1023.48 1022.92 1022.40 1022.00 1021.64 1021.24 1020.68 1020.28 1019.68 1018.88 1018.64 1018.32 1017.92 1017.16 1016.44 1015.76 1015.48 1015.52 1015.12 1014.40 1013.16 1012.28 1011.48 1010.44 1009.68 1009.16 1008.52 1007.84 1007.36 1006.64 1006.00 1005.48 1005.16 1005.04 1004.88 1004.84 1004.88 1004.88 1004.80 1004.72 1004.68 1004.72 1004.84 1005.00 1005.08 1005.36 1005.52
1027.36 1027.64 1027.88 1028.12 1028.00 1027.92 1028.08 1028.24 1028.20 1028.20 1028.00 1027.56 1027.52 1027.52 1027.28 1027.08 1026.88 1026.88 1026.84 1026.56 1026.24 1025.84 1025.32 1024.80 1024.36 1023.88 1023.40 1022.88 1022.40 1021.92 1021.60 1021.28 1020.92 1020.64 1020.32 1019.68 1019.16 1018.68 1018.12 1017.56 1016.88 1016.20 1015.60 1015.48 1015.52 1015.28 1014.12 1013.40 1012.60 1011.96 1010.60 1009.52 1008.64 1008.68 1008.08 1007.36 1006.88 1006.36 1005.68 1004.96 1004.52 1004.36 1004.36 1004.40 1004.36 1004.28 1004.20 1004.20 1004.28 1004.44 1004.64 1004.76 1005.00 1004.92
1027.20 1027.24 1027.40 1027.88 1028.12 1028.12 1028.12 1028.12 1028.08 1028.08 1028.20 1027.84 1027.60 1027.48 1027.28 1027.20 1027.12 1027.08 1027.04 1026.72 1026.56 1026.08 1025.60 1024.96 1024.44 1023.88 1023.28 1022.72 1022.20 1021.72 1021.24 1020.88 1020.64 1020.40 1020.12 1019.72 1019.32 1018.76 1018.16 1017.64 1017.52 1017.28 1016.48 1015.64 1015.64 1015.52 1014.76 1014.20 1013.36 1012.64 1012.44 1011.64 1009.56 1008.32 1008.32 1007.64 1007.32 1006.72 1006.00 1005.36 1004.80 1004.24 1003.88 1003.76 1003.68 1003.64 1003.64 1003.64 1003.76 1003.96 1004.16 1004.36 1004.56 1004.44
1026.72 1026.76 1026.84 1026.92 1027.72 1027.92 1027.88 1027.92 1028.00 1027.96 1027.96 1028.12 1027.76 1027.44 1027.32 1027.52 1027.72 1027.92 1027.16 1026.44 1026.32 1025.80 1025.32 1024.76 1024.20 1023.64 1023.16 1022.68 1022.16 1021.68 1021.24 1020.84 1020.48 1020.16 1019.88 1019.60 1019.20 1018.76 1018.20 1017.64 1017.24 1017.04 1016.56 1016.12 1015.92 1015.52 1015.12 1014.44 1013.76 1013.00 1012.20 1011.88 1011.00 1009.56 1008.56 1008.20 1007.32 1006.88 1006.36 1005.80 1005.08 1004.36 1003.84 1003.36 1003.20 1002.92 1002.84 1003.04 1003.24 1003.40 1003.68 1003.92 1004.16 1004.16
1026.52 1026.56 1026.68 1026.72 1027.36 1027.64 1027.68 1027.80 1027.92 1027.88 1027.80 1027.88 1027.72 1027.28 1027.64 1027.84 1027.96 1027.72 1027.04 1026.28 1025.80 1025.36 1024.92 1024.52 1024.08 1023.64 1023.20 1022.76 1022.32 1021.88 1021.44 1021.00 1020.60 1020.12 1019.68 1019.40 1019.08 1018.64 1018.24 1017.84 1017.20 1016.72 1016.32 1015.96 1015.84 1015.56 1015.20 1014.52 1014.04 1013.36 1012.52 1011.76 1010.76 1010.28 1009.00 1008.16 1007.76 1007.04 1006.44 1005.72 1005.12 1004.44 1003.84 1003.28 1002.92 1002.72 1002.52 1002.28 1002.40 1002.88 1003.08 1003.40 1003.68 1003.92
1026.40 1026.56 1026.76 1026.96 1027.48 1027.52 1027.56 1027.68 1027.84 1027.80 1027.72 1027.52 1027.20 1027.44 1027.52 1027.52 1027.48 1027.32 1026.32 1026.00 1025.64 1025.20 1024.84 1024.52 1024.12 1023.76 1023.36 1023.00 1022.52 1022.12 1021.68 1021.24 1020.84 1020.24 1019.76 1019.28 1018.88 1018.52 1018.04 1017.64 1017.28 1016.88 1016.44 1016.08 1015.88 1015.68 1015.44 1015.00 1014.16 1013.68 1013.00 1012.36 1011.56 1010.44 1009.76 1008.80 1007.56 1006.96 1006.40 1005.68 1005.00 1004.40 1003.92 1003.56 1003.24 1002.72 1002.36 1002.24 1002.00 1002.24 1002.68 1003.00 1003.32 1003.60
1026.44 1026.44 1026.60 1026.92 1027.44 1027.48 1027.44 1027.56 1027.72 1027.60 1027.56 1027.28 1027.24 1027.40 1027.36 1027.24 1027.12 1026.52 1025.96 1025.60 1025.40 1025.16 1024.76 1024.48 1024.16 1023.80 1023.56 1023.24 1022.84 1022.44 1022.04 1021.52 1021.00 1020.44 1019.92 1019.32 1018.76 1018.28 1017.76 1017.28 1016.84 1016.56 1016.28 1016.00 1015.84 1015.60 1015.36 1015.04 1014.32 1013.72 1013.28 1012.72 1012.00 1011.20 1010.32 1009.24 1008.60 1007.68 1006.92 1005.92 1005.16 1004.64 1004.36 1004.04 1003.60 1003.12 1002.60 1002.16 1001.92 1001.96 1002.20 1002.48 1002.96 1003.36
1026.44 1026.80 1027.12 1027.36 1027.44 1027.40 1027.40 1027.44 1027.56 1027.36 1027.04 1027.12 1027.20 1027.24 1027.16 1027.04 1026.28 1025.92 1025.76 1025.56 1025.28 1025.00 1024.84 1024.64 1024.36 1023.88 1023.56 1023.36 1023.04 1022.64 1022.16 1021.60 1020.96 1020.52 1020.08 1019.56 1018.96 1018.44 1017.88 1017.28 1016.72 1016.24 1015.96 1015.80 1015.60 1015.48 1015.28 1014.96 1014.44 1013.72 1013.16 1012.80 1012.44 1011.76 1010.96 1010.04 1008.96 1008.00 1007.36 1006.44 1005.28 1004.64 1004.48 1004.12 1003.72 1003.24 1002.56 1002.00 1001.84 1001.92 1001.92 1001.80 1002.08 1002.68
1026.92 1027.08 1027.20 1027.32 1027.32 1027.20 1027.20 1027.08 1026.80 1026.48 1026.48 1026.76 1026.84 1026.80 1026.88 1026.36 1025.88 1025.84 1025.60 1025.44 1025.24 1025.04 1024.88 1024.72 1024.44 1023.96 1023.56 1023.16 1022.88 1022.56 1022.00 1021.36 1020.88 1020.52 1020.12 1019.56 1018.80 1018.24 1017.64 1017.04 1016.40 1016.00 1015.68 1015.48 1015.36 1015.20 1014.96 1014.64 1014.20 1013.64 1013.12 1012.64 1012.44 1011.88 1011.00 1010.08 1009.12 1008.36 1007.72 1007.20 1006.36 1004.96 1004.76 1004.40 1003.92 1003.20 1002.28 1001.68 1001.68 1001.72 1001.84 1001.96 1001.96 1002.32
1026.60 1026.80 1026.96 1026.80 1027.00 1026.92 1027.04 1027.08 1027.08 1027.04 1026.84 1026.52 1026.20 1025.96 1025.88 1025.76 1025.72 1025.64 1025.60 1025.44 1025.32 1025.12 1024.92 1024.68 1024.28 1023.92 1023.52 1023.08 1022.60 1022.28 1021.92 1021.44 1020.96 1020.68 1020.32 1019.72 1019.12 1018.52 1017.92 1017.32 1016.72 1016.00 1015.44 1015.20 1015.04 1015.08 1014.88 1014.52 1014.12 1013.60 1013.16 1012.76 1012.32 1012.04 1011.32 1010.48 1009.68 1008.76 1008.04 1007.56 1006.84 1006.64 1006.04 1004.96 1004.28 1003.72 1002.96 1002.04 1001.88 1002.16 1002.36 1002.40 1002.52 1002.64
1026.36 1026.44 1026.68 1026.84 1026.64 1026.48 1026.36 1026.28 1026.24 1026.00 1025.88 1025.76 1025.76 1025.60 1025.52 1025.44 1025.44 1025.64 1025.76 1025.84 1025.24 1024.84 1024.72 1024.44 1024.16 1023.80 1023.44 1023.00 1022.68 1022.28 1021.92 1021.60 1021.12 1020.72 1020.36 1019.92 1019.28 1018.68 1018.04 1017.40 1016.92 1016.44 1015.76 1015.08 1014.76 1014.68 1014.64 1014.48 1014.12 1013.56 1013.24 1013.08 1012.84 1012.16 1011.44 1010.64 1010.04 1009.32 1008.64 1007.96 1007.36 1006.80 1006.20 1005.76 1005.16 1004.56 1003.96 1003.32 1003.00 1003.12 1003.28 1003.20 1003.16 1002.92
1026.36 1026.36 1026.12 1025.72 1025.76 1025.68 1025.68 1025.68 1025.56 1025.48 1025.48 1025.40 1025.36 1025.48 1025.36 1025.16 1025.08 1024.92 1024.80 1024.64 1024.60 1024.64 1024.56 1024.32 1024.20 1023.92 1023.56 1023.16 1022.72 1022.36 1021.96 1021.68 1021.36 1020.84 1020.48 1019.96 1019.48 1018.92 1018.40 1018.00 1017.28 1016.64 1016.04 1015.32 1014.88 1014.60 1014.44 1014.12 1014.00 1013.72 1013.08 1012.84 1012.92 1012.80 1012.04 1010.88 1010.24 1009.76 1009.12 1008.56 1007.88 1007.24 1006.76 1006.40 1005.96 1005.40 1004.76 1004.12 1004.04 1003.92 1003.84 1004.00 1003.96 1003.84
1026.00 1025.76 1025.56 1025.40 1025.24 1025.20 1025.20 1025.24 1025.32 1025.36 1025.36 1025.32 1025.20 1024.96 1025.12 1025.08 1024.80 1024.84 1024.72 1024.52 1024.44 1024.52 1024.56 1024.28 1024.04 1023.92 1023.76 1023.28 1022.92 1022.56 1022.28 1021.84 1021.40 1020.96 1020.76 1020.04 1019.52 1019.04 1018.64 1018.24 1017.64 1017.00 1016.56 1015.96 1015.40 1015.12 1014.76 1014.36 1013.84 1013.36 1013.00 1012.56 1012.68 1012.72 1012.36 1012.08 1011.28 1010.36 1009.76 1009.24 1008.68 1008.16 1007.64 1007.20 1006.60 1006.12 1005.72 1005.60 1005.08 1004.68 1004.56 1004.64 1004.68 1004.48
1025.92 1025.48 1025.16 1024.92 1024.92 1025.00 1025.00 1025.08 1025.08 1025.16 1025.24 1025.20 1025.12 1024.92 1024.68 1024.60 1024.64 1024.68 1024.48 1024.36 1024.44 1024.40 1024.20 1024.04 1023.92 1023.84 1023.64 1023.36 1023.08 1022.84 1022.52 1022.28 1021.68 1021.00 1020.68 1020.24 1019.68 1019.24 1018.76 1018.52 1018.04 1017.32 1016.64 1016.12 1015.68 1015.24 1015.04 1014.68 1014.36 1013.88 1013.24 1012.44 1011.92 1012.00 1012.32 1012.20 1011.72 1010.92 1010.16 1009.60 1009.48 1009.08 1008.52 1007.88 1007.32 1006.80 1006.40 1006.04 1005.76 1005.56 1005.28 1005.24 1005.32 1005.24
1025.32 1025.28 1025.12 1024.80 1024.68 1024.64 1024.72 1024.72 1024.80 1024.92 1024.96 1024.92 1024.84 1024.68 1024.56 1024.32 1024.24 1024.32 1024.20 1024.36 1024.44 1024.16 1023.96 1023.84 1023.80 1023.68 1023.60 1023.40 1023.20 1022.96 1022.60 1022.40 1021.72 1021.28 1020.92 1020.48 1020.12 1019.68 1019.08 1018.80 1018.48 1017.76 1016.96 1016.40 1016.00 1015.56 1015.24 1014.92 1014.72 1014.60 1014.12 1013.16 1012.56 1012.04 1011.52 1011.84 1012.12 1011.96 1011.20 1010.68 1010.20 1009.76 1009.24 1008.56 1007.96 1007.40 1006.92 1006.76 1006.64 1006.44 1006.20 1006.36 1006.32 1006.04
1025.00 1024.88 1024.84 1024.64 1024.36 1024.36 1024.40 1024.32 1024.32 1024.40 1024.48 1024.52 1024.52 1024.40 1024.36 1024.20 1023.96 1023.88 1024.00 1024.48 1024.28 1024.04 1023.88 1023.84 1023.60 1023.48 1023.40 1023.28 1023.12 1022.76 1022.48 1022.20 1021.84 1021.52 1021.20 1020.68 1020.32 1019.92 1019.48 1019.04 1018.60 1017.92 1017.28 1016.68 1016.24 1015.92 1015.52 1015.20 1014.96 1014.96 1014.80 1014.00 1013.24 1013.16 1012.72 1012.20 1011.96 1012.20 1012.12 1011.56 1010.88 1010.36 1010.00 1009.28 1008.44 1007.84 1007.72 1007.68 1007.40 1007.32 1007.36 1007.12 1006.92 1006.76
1024.88 1024.56 1024.52 1024.40 1024.16 1023.96 1023.96 1024.00 1024.12 1024.28 1024.20 1024.12 1024.16 1024.12 1024.00 1023.84 1023.72 1023.72 1023.84 1023.84 1023.64 1023.52 1023.44 1023.28 1023.12 1023.20 1023.12 1023.04 1022.92 1022.64 1022.36 1022.04 1021.76 1021.44 1021.20 1020.88 1020.60 1020.28 1019.92 1019.52 1018.84 1018.12 1017.60 1017.04 1016.48 1016.12 1015.88 1015.56 1015.48 1015.44 1015.36 1014.96 1014.40 1014.04 1013.52 1012.64 1012.28 1012.12 1012.40 1012.32 1011.88 1011.36 1010.68 1009.92 1009.28 1009.08 1008.60 1008.20 1008.16 1008.12 1007.88 1007.60 1007.44 1007.04
1024.48 1024.28 1024.28 1024.12 1023.92 1023.80 1023.76 1023.76 1023.80 1023.88 1023.80 1023.80 1023.80 1023.80 1023.64 1023.48 1023.40 1023.36 1023.36 1023.32 1023.24 1023.20 1023.08 1022.96 1022.84 1022.88 1023.08 1022.88 1022.72 1022.68 1022.40 1022.12 1021.88 1021.52 1021.28 1020.96 1020.80 1020.56 1020.28 1019.88 1019.28 1018.56 1018.04 1017.44 1016.88 1016.36 1016.08 1015.92 1015.84 1015.84 1015.80 1015.36 1015.16 1014.72 1014.28 1013.76 1012.84 1012.68 1012.68 1012.76 1012.60 1011.88 1011.40 1010.96 1010.56 1010.04 1009.72 1009.16 1008.64 1008.36 1008.08 1007.88 1007.56 1007.04
1024.28 1024.08 1023.84 1023.72 1023.64 1023.56 1023.56 1023.60 1023.68 1023.68 1023.72 1023.60 1023.52 1023.40 1023.40 1023.36 1023.20 1023.08 1023.04 1022.96 1022.92 1022.88 1022.84 1022.76 1022.76 1022.84 1022.72 1022.60 1022.60 1022.44 1022.12 1021.88 1021.76 1021.48 1021.28 1021.12 1020.96 1020.76 1020.44 1020.24 1019.52 1018.96 1018.44 1017.92 1017.48 1016.88 1016.52 1016.36 1016.36 1016.32 1016.12 1015.64 1015.28 1014.64 1014.12 1013.76 1013.16 1012.88 1012.64 1012.60 1012.76 1012.92 1012.96 1012.36 1012.08 1011.68 1010.92 1010.28 1009.44 1008.60 1008.12 1007.76 1007.40 1006.88
1023.88 1023.88 1023.64 1023.60 1023.48 1023.44 1023.40 1023.36 1023.36 1023.44 1023.52 1023.40 1023.36 1023.36 1023.36 1023.16 1023.04 1022.88 1022.80 1022.80 1022.92 1022.88 1022.60 1022.40 1022.36 1022.48 1022.40 1022.40 1022.36 1022.36 1022.16 1021.76 1021.48 1021.32 1021.20 1021.08 1020.88 1020.68 1020.60 1020.16 1019.32 1019.16 1018.88 1018.16 1017.80 1017.40 1017.04 1016.80 1016.76 1016.68 1016.20 1015.52 1015.00 1014.36 1013.88 1013.56 1013.28 1012.96 1012.76 1012.52 1012.72 1012.88 1012.88 1012.72 1012.56 1012.16 1011.84 1011.20 1010.36 1009.60 1008.76 1008.24 1008.24 1007.52
1023.20 1023.20 1023.04 1023.04 1023.12 1023.08 1023.16 1023.16 1023.16 1023.24 1023.24 1023.16 1023.08 1022.92 1022.84 1022.76 1022.68 1022.88 1023.08 1023.04 1023.04 1023.00 1022.76 1022.28 1021.96 1021.84 1021.80 1021.84 1021.84 1021.88 1021.84 1021.68 1021.44 1021.32 1021.28 1021.16 1020.72 1020.40 1020.12 1019.76 1019.52 1019.40 1019.24 1018.64 1018.20 1017.68 1017.24 1016.92 1016.56 1016.16 1015.80 1015.44 1015.00 1014.52 1014.44 1014.36 1014.08 1013.68 1013.40 1012.84 1012.60 1012.64 1012.92 1012.88 1012.76 1012.48 1012.04 1011.32 1010.56 1009.92 1009.32 1008.48 1008.16 1008.24
1022.80 1022.76 1022.68 1022.68 1022.80 1022.80 1022.80 1022.84 1022.84 1022.88 1022.88 1022.76 1022.68 1022.64 1022.64 1022.56 1022.44 1022.36 1022.20 1021.96 1022.00 1021.92 1021.72 1021.56 1021.40 1021.36 1021.28 1021.28 1021.32 1021.48 1021.48 1021.32 1021.20 1021.16 1021.24 1021.08 1020.84 1020.52 1020.08 1019.80 1019.80 1019.56 1019.20 1018.72 1018.24 1017.84 1017.32 1016.92 1016.56 1016.28 1015.88 1015.64 1015.52 1015.16 1015.12 1014.84 1014.36 1013.96 1013.52 1013.12 1012.96 1012.64 1012.52 1012.64 1012.68 1012.68 1012.44 1012.08 1011.80 1011.64 1011.44 1011.08 1010.08 1010.44
1022.40 1022.56 1022.40 1022.32 1022.36 1022.40 1022.48 1022.52 1022.56 1022.56 1022.64 1022.56 1022.40 1022.40 1022.36 1022.20 1022.04 1021.96 1021.80 1021.56 1021.48 1021.36 1021.32 1021.24 1021.12 1021.08 1021.08 1021.04 1021.04 1021.12 1021.12 1020.92 1020.84 1020.96 1020.92 1020.76 1020.72 1020.48 1020.16 1019.92 1019.68 1019.48 1019.00 1018.48 1018.24 1017.80 1017.36 1016.96 1016.56 1016.44 1016.00 1015.84 1015.76 1015.44 1015.48 1015.08 1014.40 1014.32 1014.04 1013.88 1013.40 1012.96 1012.60 1012.32 1012.16 1012.40 1012.60 1012.60 1012.48 1012.36 1012.20 1011.92 1011.84 1012.00
1021.96 1022.04 1021.96 1021.92 1021.96 1022.00 1022.00 1022.04 1022.20 1022.24 1022.28 1022.24 1022.20 1022.08 1022.04 1021.96 1021.80 1021.60 1021.48 1021.52 1021.36 1021.36 1021.36 1021.24 1021.08 1020.88 1020.84 1020.80 1020.76 1020.64 1020.44 1020.56 1020.76 1020.64 1020.56 1020.40 1020.12 1020.00 1019.84 1019.72 1019.48 1019.32 1018.88 1018.68 1018.40 1017.88 1017.52 1017.20 1016.60 1016.40 1016.04 1015.96 1015.80 1015.60 1015.40 1015.28 1014.96 1014.56 1014.24 1014.00 1013.60 1013.28 1012.96 1012.68 1012.16 1011.96 1012.36 1012.76 1012.88 1012.68 1012.60 1012.40 1012.24 1012.08
Wind_Speed
9 9 10 9 7 7 6 6 6 6 6 6 6 7 7 6 6 7 9 8 8 10 11 10 11 13 13 12 12 12 12 13 15 14 13 14 13 15 18 20 20 19 19 19 19 19 20 21 23 25 26 27 27 26 25 24 24 23 21 20 20 20 19 17 16 16 17 17 16 15 14 16 22 23
8 8 8 7 7 6 6 6 6 6 6 6 6 5 4 5 5 5 7 9 6 8 9 10 11 12 13 11 11 11 12 15 17 15 15 14 14 18 21 21 18 17 17 17 18 18 19 21 24 27 27 26 27 26 25 23 23 23 22 20 19 19 18 18 18 17 17 18 16 16 16 16 15 22
7 8 8 7 7 6 6 6 6 5 5 5 5 5 3 3 3 5 5 8 5 6 10 9 10 12 14 12 12 11 12 13 16 15 15 15 18 24 19 17 17 16 16 16 17 21 22 21 21 23 26 26 27 26 24 23 22 22 22 19 18 18 18 18 19 19 19 18 17 17 17 17 17 20
7 8 9 7 6 5 6 6 6 5 5 4 4 4 4 3 2 3 5 6 11 9 8 10 10 12 13 13 12 13 12 12 16 15 15 17 20 15 14 17 17 16 16 16 17 19 20 20 22 23 25 25 25 24 23 22 21 21 20 17 17 16 16 17 18 20 20 19 18 17 18 18 19 18
7 8 8 8 7 6 6 5 5 5 5 5 4 4 4 4 3 4 5 7 10 9 7 9 10 11 12 12 13 14 14 14 14 15 15 17 15 14 14 16 19 18 17 16 16 18 19 20 22 25 24 24 24 22 20 20 19 18 18 17 16 14 16 18 18 19 21 20 18 17 17 18 18 18
6 7 8 8 7 5 6 6 7 6 6 6 6 5 5 5 5 4 5 7 8 11 10 9 9 10 12 12 12 13 16 15 14 16 16 14 15 14 17 17 17 19 17 17 19 19 19 20 21 22 22 22 21 20 20 19 17 18 18 18 16 15 17 19 20 19 20 20 20 18 17 17 17 16
7 7 7 7 5 4 6 6 6 6 6 6 6 6 5 5 5 5 5 6 8 10 10 10 11 11 11 11 14 14 13 14 14 16 16 16 14 16 17 17 16 18 17 19 19 19 19 21 21 21 22 22 21 21 20 19 18 17 16 17 18 17 17 16 17 18 19 20 20 19 17 17 18 18
7 7 6 6 5 5 6 6 6 6 7 6 6 7 6 6 6 6 5 6 7 8 10 11 11 11 11 11 12 12 12 13 14 14 15 15 18 18 17 19 17 18 20 18 19 18 19 20 20 20 20 20 21 20 20 19 19 18 17 17 17 18 17 16 16 17 17 18 19 19 18 17 18 18
6 6 6 5 5 6 6 6 7 7 8 7 6 7 7 6 6 6 6 7 7 8 10 10 10 10 10 11 12 12 14 14 13 13 14 15 18 18 19 16 16 20 18 18 18 18 19 20 19 19 19 20 20 19 20 20 19 19 18 17 17 17 17 16 16 17 17 16 15 19 20 18 18 17
5 5 5 5 5 6 7 6 6 6 7 7 7 8 7 7 7 7 7 7 8 8 9 11 11 10 12 11 10 13 14 15 15 14 13 16 15 15 15 16 14 13 15 15 16 17 19 21 20 19 17 18 18 19 19 19 18 18 18 16 16 16 16 16 15 16 16 15 14 16 18 18 16 17
5 5 5 5 5 6 6 7 7 7 7 6 8 7 7 7 8 8 7 8 8 8 10 9 10 11 10 11 13 14 13 13 13 15 19 17 16 16 17 18 17 17 17 18 17 17 17 19 18 18 17 16 17 16 15 16 17 16 15 14 14 15 15 15 15 15 16 16 14 14 14 14 15 17
4 4 4 5 6 6 6 6 6 6 6 7 7 7 7 8 8 7 8 8 8 9 9 10 12 10 11 11 11 12 13 13 13 12 15 18 19 19 18 16 18 17 16 17 17 17 18 18 19 18 17 16 14 15 16 15 14 15 12 10 10 12 14 15 15 15 16 15 14 14 14 14 13 13
3 3 4 5 6 6 6 7 6 5 4 6 7 8 8 8 8 8 8 8 8 9 9 10 10 11 12 12 14 14 14 15 16 16 16 16 17 18 19 17 15 14 17 17 17 16 17 17 17 16 15 15 18 16 15 15 13 10 9 11 13 13 15 16 16 16 16 16 15 14 14 14 13 12
3 3 3 4 6 5 5 5 5 4 5 4 4 5 7 7 7 7 8 8 9 9 10 11 12 12 12 14 14 13 14 14 15 18 19 18 18 17 17 18 15 16 18 19 19 18 16 17 17 15 16 15 15 14 13 13 14 15 15 16 15 15 15 16 17 17 17 17 16 14 14 14 13 12
3 2 3 4 4 3 3 3 3 5 6 7 7 6 4 3 4 6 7 8 8 9 9 10 11 11 13 14 13 13 14 14 15 16 16 18 17 17 18 19 18 14 19 17 19 18 16 15 17 17 16 16 15 15 14 17 19 19 17 16 16 16 17 16 17 17 17 17 17 15 14 14 14 12
2 2 2 3 3 3 4 4 5 5 5 7 8 9 7 4 2 0 2 6 8 9 9 10 11 11 12 13 13 14 15 15 15 15 16 17 17 17 17 17 18 18 18 18 17 17 15 15 16 16 16 15 15 16 17 17 17 16 16 16 16 16 16 17 17 17 16 16 17 16 14 13 13 12
1 1 2 3 3 2 2 3 6 6 7 7 8 7 8 5 6 7 4 5 4 7 8 9 11 11 12 13 13 14 15 15 15 16 15 17 18 17 17 18 19 20 18 16 17 17 16 15 17 17 16 16 16 17 17 17 18 19 18 17 16 15 16 17 17 17 16 16 16 16 15 13 13 12
2 2 2 2 3 3 3 4 6 6 7 8 8 8 9 8 9 7 7 9 8 8 7 8 10 12 11 11 13 14 14 15 16 16 16 18 18 19 19 20 19 18 16 17 17 16 17 17 18 18 17 15 15 15 19 19 18 18 16 15 14 14 14 15 17 17 16 15 15 16 15 14 13 12
2 2 2 2 2 2 3 4 5 6 7 7 7 8 8 8 8 7 9 9 8 8 7 8 9 11 11 11 13 12 12 13 13 14 16 17 17 17 17 15 14 15 15 15 16 17 18 17 18 18 18 17 16 15 18 19 17 17 15 13 13 13 13 14 15 16 16 15 15 15 15 14 12 12
3 2 2 2 2 2 3 5 5 5 6 7 8 9 9 9 8 7 7 7 7 7 7 8 9 10 11 13 13 13 11 11 13 13 12 13 15 16 16 16 16 14 14 14 17 16 17 15 15 18 17 16 17 17 15 17 16 15 15 15 14 14 14 14 15 15 16 15 15 15 15 14 13 11
3 2 2 2 1 1 3 5 6 6 6 6 7 8 9 8 8 9 9 11 12 12 12 12 13 14 15 15 16 15 14 11 12 11 12 15 17 17 18 18 16 16 14 12 16 16 16 16 16 18 18 18 17 15 15 14 17 18 18 17 17 16 14 14 15 15 15 15 15 15 14 14 12 11
3 3 3 1 1 1 3 5 4 6 5 6 7 8 8 9 10 11 10 9 9 12 12 12 12 13 14 14 15 13 14 15 12 12 13 15 16 16 15 15 17 16 13 14 17 15 15 17 16 18 18 17 11 13 13 16 17 18 16 14 13 14 14 14 14 15 15 15 15 15 15 14 12 10
3 4 4 2 2 2 3 4 3 4 4 5 6 7 7 8 9 9 10 10 11 11 11 11 11 11 11 11 11 11 14 14 12 11 11 11 14 16 17 17 18 16 12 15 17 16 16 17 16 17 17 17 12 9 14 16 15 15 13 13 12 12 10 11 13 14 15 15 14 15 15 14 12 9
4 4 4 5 5 1 0 2 4 3 1 3 5 5 6 7 9 9 9 9 9 10 9 10 10 11 11 11 10 11 12 12 13 12 10 11 11 14 16 16 15 14 15 15 15 14 13 13 15 15 14 15 17 18 16 16 14 13 13 13 12 13 12 11 13 16 15 14 14 15 15 15 14 10
5 4 3 3 6 2 2 3 4 4 2 2 4 4 5 5 7 9 9 10 10 9 9 9 9 9 9 10 11 12 12 12 12 12 11 11 12 12 13 15 16 14 14 14 16 13 12 14 14 15 15 13 15 18 16 14 12 11 12 12 12 11 11 10 9 8 10 14 14 15 15 16 17 13
4 3 2 2 4 1 1 3 5 5 5 3 4 3 3 6 7 7 8 8 8 8 8 8 8 9 10 10 11 11 12 12 13 13 12 11 12 12 11 12 15 15 17 16 16 16 15 14 14 15 15 15 17 16 17 14 11 12 12 11 11 10 9 9 8 7 8 6 6 11 12 17 16 18
4 2 2 2 3 1 2 4 5 6 5 6 3 3 6 7 9 9 6 7 7 8 9 9 9 9 10 10 11 11 12 11 12 12 12 13 13 12 11 11 10 11 14 15 15 15 14 11 12 15 16 15 15 15 14 15 14 13 12 13 12 9 8 10 9 8 7 6 7 11 13 14 16 15
2 3 2 1 1 3 3 5 6 7 5 4 6 7 7 8 8 6 7 6 8 8 9 10 10 10 9 9 10 10 10 11 12 11 12 14 14 13 13 13 12 10 11 14 15 15 14 12 11 11 13 14 16 16 17 14 12 12 13 14 10 8 9 10 9 9 7 7 7 6 6 7 9 11
1 2 2 3 5 4 4 6 8 8 8 7 6 7 7 7 5 5 6 7 7 8 9 10 10 10 10 9 9 10 10 11 10 10 10 11 12 12 12 12 12 12 8 10 14 15 13 12 13 13 10 9 11 14 14 15 14 12 12 15 14 11 12 12 11 10 8 6 6 5 6 6 7 9
1 3 4 5 5 6 5 4 4 5 3 3 7 8 6 5 4 4 6 6 7 8 9 9 9 10 9 9 9 10 10 10 11 11 11 11 12 13 13 12 13 13 12 10 11 14 15 12 10 12 12 10 10 14 14 15 14 13 12 13 14 6 12 13 13 11 10 4 6 5 5 4 5 6
3 3 4 2 2 4 3 4 5 5 5 5 5 4 3 4 4 3 4 5 6 6 7 8 9 9 9 9 9 9 10 11 11 11 11 11 12 12 12 12 13 14 14 14 11 10 14 16 15 14 13 12 12 13 14 13 15 16 12 11 13 12 12 12 11 11 11 9 5 5 3 4 5 6
2 2 2 3 4 4 4 4 4 4 4 5 5 4 4 4 4 4 7 8 5 4 5 7 8 9 10 10 10 10 9 10 11 11 11 11 11 12 12 12 13 13 14 14 13 12 12 15 14 10 8 9 10 12 14 12 17 17 15 15 12 12 12 14 14 14 13 9 9 9 9 8 5 1
2 3 3 4 4 4 3 4 4 4 4 5 5 5 5 4 4 5 5 6 5 5 6 7 8 9 10 10 10 10 11 11 11 11 11 11 10 11 10 12 13 13 14 14 15 14 14 14 11 10 8 6 7 8 12 15 19 17 17 17 16 16 15 13 14 15 13 9 8 8 11 10 9 9
3 4 3 3 3 4 4 3 3 4 5 5 6 6 4 4 4 5 5 5 5 5 5 6 6 8 7 9 10 10 10 11 11 11 12 11 11 10 9 10 12 13 12 13 14 12 12 13 15 11 9 4 1 3 11 13 18 19 17 15 18 16 15 12 12 14 12 11 8 8 10 10 10 10
4 3 3 3 3 3 4 3 3 3 3 4 4 6 6 5 3 3 5 5 4 3 4 4 5 5 7 8 9 9 9 10 10 10 11 11 12 11 11 10 11 12 13 13 13 14 11 12 15 14 10 11 9 6 10 13 15 17 16 15 14 14 14 12 11 13 14 14 10 7 7 10 12 10
4 4 4 3 3 4 3 3 4 3 3 4 5 4 5 5 4 3 4 4 5 4 5 4 4 5 6 7 6 8 8 9 9 10 10 10 10 10 11 10 10 12 12 12 13 13 13 12 14 15 16 16 15 15 15 15 18 14 17 16 15 13 14 13 11 12 14 12 12 10 10 10 10 12
6 4 6 6 6 4 4 5 4 5 5 6 6 6 5 5 5 7 5 2 5 4 4 3 3 4 4 5 6 5 6 7 7 8 8 10 11 11 9 11 11 10 12 13 12 13 12 13 13 14 15 15 17 17 15 9 16 19 15 15 15 13 13 12 12 12 12 12 11 11 9 8 8 9
6 7 7 7 7 6 5 5 4 3 5 6 6 5 6 6 6 6 4 5 5 3 3 3 3 3 4 4 5 6 6 6 7 7 7 8 9 9 9 9 10 11 11 12 13 12 12 12 12 12 13 14 14 14 15 14 14 15 19 17 16 16 14 13 13 13 12 11 9 8 6 8 9 6
8 8 7 7 7 6 6 5 5 5 6 6 6 5 7 7 6 6 5 5 6 4 4 3 4 3 4 6 4 4 5 6 7 7 8 8 8 9 8 9 9 10 11 10 12 12 12 12 13 11 12 12 13 13 12 13 14 14 12 19 15 16 18 15 13 12 12 11 10 7 3 3 3 6
8 7 7 7 6 6 5 4 4 4 5 6 6 6 6 5 6 6 4 4 4 4 4 4 3 4 3 4 4 5 5 7 6 6 7 7 7 7 7 8 8 9 9 9 10 12 12 12 12 12 10 9 9 9 8 7 8 11 12 13 18 15 11 12 13 11 10 11 8 5 4 5 7 8
8 7 8 7 7 6 5 5 5 4 5 5 6 6 6 6 6 4 4 4 4 4 5 5 3 3 4 4 3 4 5 6 5 6 6 7 6 6 7 9 8 9 9 9 10 9 10 11 11 12 11 8 8 7 5 8 12 13 14 12 10 12 18 19 14 12 10 10 8 6 8 8 9 11
8 8 8 6 6 6 5 5 5 4 5 5 5 6 6 5 4 6 5 5 6 4 5 5 4 3 3 3 3 3 4 5 5 6 5 6 7 8 8 8 9 9 8 9 9 9 9 9 10 9 9 8 8 10 10 10 10 9 10 9 10 9 10 16 24 21 19 16 15 14 10 7 7 14
7 7 7 6 6 5 5 5 5 5 5 5 5 5 3 3 3 4 4 4 4 4 4 4 4 4 3 3 3 3 4 4 4 4 5 5 5 7 7 7 7 7 7 7 8 7 7 9 9 8 6 8 8 8 9 9 9 9 10 11 10 10 8 10 16 20 23 25 23 19 15 11 8 10
7 7 7 6 6 6 6 5 5 5 5 5 3 3 3 3 4 4 4 4 4 4 4 4 4 4 4 4 3 3 3 4 3 4 5 5 5 5 5 6 6 7 7 8 8 8 8 8 6 7 7 8 7 8 8 9 9 8 8 8 9 9 10 10 6 10 12 18 21 20 21 21 18 15
8 8 7 6 6 6 6 6 5 5 5 4 3 4 3 3 4 4 4 4 4 4 4 5 4 4 4 4 4 5 4 4 4 4 4 4 4 5 5 5 6 7 7 7 8 9 9 8 7 7 5 6 7 7 6 6 7 8 9 10 9 9 9 9 11 11 10 8 10 16 16 17 16 16
Wind_Direction
71 70 67 70 71 66 64 62 59 53 49 47 43 35 34 13 359 351 334 353 343 342 352 341 338 340 336 333 329 326 324 322 319 319 315 311 305 305 305 301 297 291 294 296 298 297 298 298 305 309 311 311 311 310 308 308 306 305 305 304 302 302 304 307 305 305 302 306 304 310 304 287 223 209
74 72 72 72 74 68 65 64 54 49 44 41 37 36 29 19 7 351 332 322 330 324 333 339 332 334 332 331 323 319 316 315 314 313 310 307 305 303 301 297 291 290 291 292 294 295 295 301 305 308 308 308 308 308 308 307 306 305 303 303 303 305 302 301 300 299 300 298 303 304 305 302 264 216
79 80 80 79 77 71 66 59 52 46 39 33 33 28 15 21 3 337 325 315 332 338 323 327 325 325 326 324 318 314 314 315 313 310 308 306 306 304 300 295 296 298 299 296 298 305 310 304 300 299 302 305 307 307 307 308 306 303 303 304 303 299 298 297 296 296 295 297 299 304 304 303 293 233
88 88 84 76 69 63 62 56 46 42 36 27 25 19 7 8 350 323 313 304 306 325 320 317 318 326 323 321 321 321 317 314 312 311 307 308 308 306 309 308 311 310 307 305 302 300 302 300 300 300 304 306 304 304 305 302 300 300 297 295 291 291 289 290 290 292 293 295 299 301 302 302 299 267
92 88 85 78 67 59 54 47 44 37 26 20 20 11 360 357 356 335 321 315 312 315 327 320 324 323 325 322 326 322 320 318 318 313 310 311 312 314 318 323 322 321 312 306 305 304 301 300 301 304 301 299 298 297 294 293 291 288 289 288 285 280 281 283 286 287 289 293 295 296 297 298 295 291
93 88 81 74 67 54 53 45 40 30 24 16 15 10 359 356 354 349 328 324 318 321 326 328 325 328 332 320 327 326 323 322 321 317 315 313 318 323 329 326 322 320 322 319 313 306 302 300 299 297 296 293 292 289 289 288 286 285 284 284 281 277 276 280 283 283 284 289 292 292 294 294 296 297
98 89 79 70 59 49 48 42 36 26 20 10 8 358 354 350 349 345 336 327 328 325 323 326 330 335 330 324 324 326 322 318 318 316 318 323 328 332 329 323 322 322 323 318 311 308 304 300 298 296 292 291 289 289 287 287 286 284 280 277 279 276 274 272 274 274 277 282 287 290 290 292 294 292
94 85 78 65 49 40 42 34 29 25 13 8 360 356 356 348 350 340 337 340 325 324 323 333 331 333 326 324 321 322 322 324 323 323 322 326 333 334 330 328 325 324 322 314 312 309 307 304 298 294 290 289 289 288 289 288 287 286 282 278 276 277 273 269 267 269 270 272 279 283 284 285 286 289
93 82 71 58 44 36 34 31 26 17 10 3 360 358 356 353 348 342 341 338 332 325 326 324 326 325 326 322 321 328 330 327 326 326 328 327 330 336 337 334 325 323 320 318 317 317 312 306 304 302 298 294 292 291 290 289 288 287 285 280 275 275 274 269 265 266 267 268 268 275 280 279 283 291
92 75 62 50 36 36 32 27 20 9 3 356 357 1 355 354 348 343 341 338 333 326 325 325 326 336 333 331 330 335 333 330 329 331 332 327 331 333 329 329 332 328 327 329 327 324 319 318 316 309 308 301 294 290 285 285 285 286 285 282 278 274 273 270 265 262 264 264 263 268 273 276 281 283
90 71 55 46 39 34 29 24 17 5 356 350 355 2 354 352 347 343 341 339 335 333 329 329 334 333 337 334 334 337 335 329 332 331 336 337 335 332 333 332 330 331 329 327 324 321 315 312 316 318 308 302 294 293 291 286 283 280 282 283 279 274 273 271 266 261 262 261 260 261 263 268 271 278
96 75 58 49 43 38 39 25 17 7 356 352 358 2 355 352 346 343 342 339 339 339 338 338 340 340 336 342 336 333 335 336 336 342 336 331 332 333 335 331 329 331 331 331 331 330 328 324 322 318 315 309 311 308 303 301 298 298 290 286 283 279 277 275 270 264 261 261 257 254 259 258 260 268
110 86 64 51 45 46 42 37 24 19 357 355 358 1 355 351 344 341 341 341 341 339 339 344 343 339 344 344 343 342 346 345 336 331 337 332 332 333 330 329 333 332 331 332 331 332 330 324 320 322 320 321 320 314 306 302 290 298 319 311 294 283 278 275 272 267 264 263 259 254 255 258 254 253
119 90 72 67 53 42 35 31 10 1 7 0 1 358 358 350 345 342 340 340 343 339 341 346 342 345 344 344 343 340 340 334 330 335 338 335 334 332 330 327 333 339 337 332 329 329 331 324 318 318 318 317 319 317 314 313 320 313 302 290 282 278 274 273 271 268 264 263 261 255 253 256 252 251
128 102 68 64 60 46 26 23 354 357 7 354 352 353 349 345 346 347 339 339 336 339 339 340 343 344 341 340 338 342 338 336 332 333 333 335 335 335 333 330 329 338 336 328 325 325 330 326 318 318 316 318 316 312 311 315 306 295 287 281 277 274 272 269 268 267 262 261 260 256 252 253 254 248
138 85 61 68 73 44 20 356 6 8 6 354 350 346 337 330 332 263 321 329 334 337 333 336 341 341 344 332 339 342 338 335 329 329 334 339 336 333 331 328 325 325 331 331 329 326 328 326 322 317 318 314 311 310 307 300 297 297 294 287 279 273 269 267 266 263 260 257 259 258 251 250 251 250
145 63 53 53 71 62 341 358 15 5 6 7 355 338 341 359 7 340 314 253 291 322 319 330 329 341 335 332 336 336 330 327 325 328 331 341 338 335 331 330 326 327 334 331 332 328 329 331 325 319 316 316 315 311 307 310 304 294 290 289 284 276 268 265 264 262 258 253 255 257 253 247 248 247
149 78 52 35 49 42 28 29 10 8 10 4 4 7 8 360 355 348 349 343 330 328 322 323 322 323 330 323 324 324 327 330 331 330 330 338 335 337 335 328 327 329 336 339 335 324 329 331 324 320 320 319 314 309 307 303 300 296 289 289 291 281 271 263 263 261 258 253 248 253 252 247 243 244
135 112 86 56 56 40 35 45 5 6 6 4 5 5 5 3 352 356 357 352 341 331 322 320 313 314 317 320 315 318 325 327 323 321 320 331 336 332 326 323 322 325 336 340 344 329 325 329 324 321 322 322 314 311 309 305 303 298 291 285 285 286 275 265 261 259 258 252 246 245 250 247 242 240
143 127 100 83 77 45 49 46 23 16 343 3 6 2 360 358 356 4 356 329 310 303 312 314 313 311 305 301 302 306 312 323 324 317 316 334 340 336 334 331 329 328 335 346 348 332 324 327 324 321 323 321 319 317 313 312 308 309 312 301 288 278 273 266 258 257 255 251 244 241 244 244 241 237
145 141 119 115 83 72 58 35 9 16 337 4 4 3 356 355 355 2 351 337 327 325 314 303 292 292 293 296 300 302 306 317 317 325 333 350 347 344 339 336 335 333 335 347 351 333 323 330 327 324 328 328 320 319 319 321 320 310 297 290 285 273 266 261 257 254 251 248 243 239 235 239 239 233
152 107 91 72 138 66 65 19 5 6 338 2 1 357 353 355 360 356 350 341 334 325 313 304 302 297 295 296 298 305 322 325 329 346 344 343 348 344 341 336 339 332 337 348 349 333 330 327 331 330 329 326 326 323 325 324 320 318 314 307 291 270 255 253 253 251 249 245 241 235 231 232 229 233
160 144 147 128 14 31 29 347 347 12 347 351 353 347 344 350 353 355 337 335 331 330 328 328 326 318 315 314 323 326 320 324 334 344 335 333 351 349 345 343 340 338 341 348 349 337 334 337 338 339 334 333 325 331 329 330 327 324 322 319 311 297 267 249 245 244 241 240 236 230 226 224 217 236
173 161 155 162 171 215 230 330 333 354 53 327 339 334 341 345 340 339 325 318 318 311 312 313 314 313 318 324 329 335 338 341 344 340 338 337 340 351 351 349 347 339 333 341 346 338 329 335 332 341 335 329 327 331 330 326 324 320 322 321 317 307 290 250 235 229 236 233 226 223 219 217 211 226
179 176 173 155 137 159 30 330 318 307 312 282 299 308 332 329 320 307 304 308 302 306 309 313 321 333 337 341 344 345 345 343 341 338 339 342 339 339 344 350 351 342 337 342 342 342 337 331 330 332 335 333 325 324 328 323 322 324 324 318 314 307 304 297 294 279 216 211 219 216 213 214 205 218
185 189 171 186 112 75 340 320 297 293 291 283 266 309 313 293 291 291 290 300 315 321 326 330 336 344 347 347 348 345 344 342 338 335 339 343 342 340 340 343 349 351 346 347 349 350 343 336 332 332 332 337 334 333 330 329 324 326 322 321 315 307 301 300 294 280 278 264 220 202 207 203 208 206
173 175 183 158 122 271 311 294 290 283 290 265 269 315 299 293 298 281 293 312 316 330 333 336 342 345 349 347 346 346 342 338 334 333 337 336 339 338 333 333 327 342 350 350 354 351 345 329 328 334 334 330 333 335 337 335 329 329 329 333 330 335 345 342 331 319 295 253 252 177 193 193 201 204
165 188 196 115 72 296 295 284 276 280 269 280 306 294 289 299 288 289 311 325 333 328 339 343 344 344 344 344 341 340 332 327 326 330 331 331 332 337 334 331 336 334 333 355 357 357 348 334 323 329 333 334 339 343 337 333 326 329 333 335 337 352 356 349 339 327 307 279 257 209 209 199 196 199
171 45 3 295 263 268 280 278 274 257 241 229 251 269 285 280 291 316 323 329 333 339 345 343 337 339 340 336 330 321 316 310 322 334 329 325 325 330 331 334 340 345 346 352 359 1 355 340 329 326 325 329 335 336 340 331 332 339 341 344 349 354 360 352 346 334 310 264 240 220 214 220 193 195
353 265 257 266 265 252 245 240 239 272 306 310 289 276 256 272 300 314 326 332 334 340 339 336 334 333 331 330 323 316 320 334 344 340 334 331 339 338 342 343 353 352 353 355 2 4 359 348 337 338 335 332 339 340 343 343 345 342 346 353 345 338 2 350 348 342 326 261 208 208 198 209 212 202
213 204 225 266 329 303 310 274 281 275 269 257 247 264 264 298 298 304 310 323 318 323 326 327 329 330 327 322 330 342 340 344 344 342 333 334 335 338 340 345 349 349 350 353 357 3 3 359 354 349 347 336 333 348 346 352 360 358 351 350 357 15 339 346 352 351 344 3 61 71 93 151 165 193
191 236 190 210 219 210 219 215 232 240 261 278 282 290 304 304 303 277 247 237 261 301 321 322 327 334 336 339 340 337 342 344 342 342 339 335 332 337 340 348 354 348 345 347 351 354 358 2 351 338 347 341 329 329 345 0 7 3 357 356 351 359 359 4 2 3 351 356 38 50 42 33 32 217
199 216 224 216 212 225 243 261 271 280 285 297 293 283 290 313 314 319 333 335 336 332 329 334 333 332 337 337 340 340 340 343 339 344 339 335 333 333 344 348 348 350 348 347 347 349 349 347 348 338 328 337 329 320 347 360 6 6 6 5 2 4 3 359 4 8 4 8 21 42 49 36 29 18
242 232 236 229 231 234 242 258 272 282 293 299 304 307 293 286 313 323 319 323 331 329 314 319 324 330 330 335 340 341 340 336 336 341 339 338 340 340 346 347 348 347 347 348 349 348 346 350 346 339 336 322 165 325 16 8 6 7 7 10 10 5 359 352 359 8 14 16 0 27 41 35 27 17
232 236 232 230 224 231 242 252 264 276 284 288 293 300 306 304 301 301 310 324 325 316 316 318 322 325 328 332 335 336 336 333 329 339 343 344 346 345 346 347 343 345 348 352 352 350 347 354 358 352 352 4 24 52 50 28 14 6 5 12 7 3 356 349 354 11 16 21 12 12 29 36 26 13
230 228 237 240 242 240 243 248 257 264 274 283 286 294 300 307 308 303 311 324 309 308 312 317 320 323 323 324 327 326 330 325 332 340 341 347 346 341 343 343 338 338 347 354 353 351 350 351 0 2 359 1 7 10 17 24 28 15 10 5 6 1 359 355 359 10 17 17 17 19 31 33 30 25
236 228 232 239 241 237 242 248 255 267 275 281 285 290 292 296 302 303 307 265 275 281 290 301 304 311 311 316 318 322 328 332 333 335 338 342 347 346 344 340 337 341 349 352 354 355 353 354 358 4 0 2 6 4 357 346 23 30 17 8 5 9 359 357 3 10 15 13 12 21 16 11 25 32
234 236 232 237 240 243 243 247 246 251 264 274 279 285 284 285 289 287 280 274 285 289 292 292 306 302 309 315 316 326 329 332 334 338 342 342 344 346 345 340 337 345 345 351 355 359 358 359 0 3 2 360 356 356 348 354 8 18 27 20 16 9 5 359 8 6 357 359 8 352 346 24 17 358
234 235 230 236 238 236 238 238 239 249 262 273 278 282 287 293 294 292 286 286 289 287 291 296 302 314 308 305 311 314 320 327 333 339 340 342 342 341 340 340 334 340 338 347 353 359 1 2 3 1 360 356 354 347 346 346 2 8 17 29 24 19 17 10 6 0 357 349 344 332 331 261 253 337
232 235 241 239 241 238 238 235 236 239 252 262 271 279 285 285 290 291 291 289 290 289 286 286 286 291 295 301 307 309 312 320 324 331 335 334 334 331 338 334 333 340 338 343 349 356 0 2 358 355 339 340 343 345 353 358 8 14 17 24 36 44 24 15 18 359 351 341 312 319 337 355 13 3
228 231 235 234 239 239 237 237 238 235 243 254 261 265 265 271 275 278 285 291 292 288 289 291 290 282 286 289 288 296 308 317 323 328 332 329 329 330 327 323 345 351 344 345 348 349 357 353 336 298 292 327 329 329 354 8 12 12 13 17 26 45 45 41 26 18 11 349 348 353 0 13 14 22
225 232 238 230 230 232 228 232 230 227 238 242 252 259 267 268 268 265 275 263 254 249 265 271 272 272 276 273 277 278 287 304 313 318 324 326 330 333 336 344 347 344 341 342 341 340 334 334 332 342 352 351 357 7 14 6 2 2 3 6 15 45 72 55 42 35 31 24 21 19 8 358 9 33
225 235 239 232 225 227 229 229 232 232 240 246 250 256 261 264 269 259 261 264 260 261 270 276 277 277 279 282 280 276 284 289 298 305 310 310 321 327 333 340 336 331 331 329 334 329 332 333 343 344 352 5 4 5 8 358 1 360 3 5 6 10 35 71 73 50 37 38 38 41 39 26 16 34
231 229 238 237 231 228 230 229 234 229 234 243 249 250 247 257 261 260 266 273 274 275 275 280 281 281 277 277 275 269 267 275 288 294 298 305 306 308 317 323 322 329 328 342 336 341 341 339 344 342 352 5 357 1 2 355 5 1 358 350 347 359 18 21 46 64 54 46 43 42 41 47 54 61
232 234 236 236 230 232 231 229 228 229 229 237 243 244 243 246 252 263 266 263 266 264 266 269 273 277 277 276 273 275 278 272 269 273 277 287 300 307 311 314 326 326 333 341 338 340 343 338 345 348 346 360 353 354 352 354 355 353 356 355 358 3 7 12 20 28 33 43 50 55 51 46 47 49